Location: Newark
(41.6500°N, 71.4833°W)
Time: 12:46:44
(UTC+00:00)

Transit 2A Rocket - Visible Passes

Search period start: 19 January 2020 00:00
Search period end: 29 January 2020 00:00
Orbit: 593 x 910 km, 66.7° (Epoch: 18 January)

Date Brightness Start Highest point End Pass type
(mag) Time Alt. Az. Time Alt. Az. Time Alt. Az.
19 Jan 7.8 10:00:36 10° SE 10:02:27 12° ESE 10:04:17 10° E visible
20 Jan 4.8 10:57:34 10° SSW 11:01:54 72° ESE 11:06:12 10° NE visible
21 Jan 6.1 10:15:30 10° S 10:19:28 36° ESE 10:23:26 10° NE visible
22 Jan 7.1 09:34:04 10° SSE 09:37:09 19° ESE 09:40:13 10° ENE visible
22 Jan 4.9 11:15:17 10° SW 11:19:21 40° NW 11:23:27 10° NNE visible
23 Jan 4.3 10:32:26 10° SW 10:36:45 75° WNW 10:41:05 10° NNE visible
24 Jan 5.0 09:52:32 32° S 09:54:16 56° ESE 09:58:30 10° NE visible
24 Jan 6.0 11:34:19 10° W 11:37:09 17° NW 11:40:02 10° N visible
25 Jan 6.4 09:12:34 27° E 09:12:34 27° E 09:15:37 10° NE visible
25 Jan 5.4 10:52:33 21° W 10:54:21 28° NW 10:58:06 10° N visible
26 Jan 4.8 10:12:07 47° NW 10:12:07 47° NW 10:15:53 10° NNE visible
27 Jan 6.1 09:31:24 27° NNE 09:31:24 27° NNE 09:33:27 10° NNE visible
27 Jan 6.4 11:11:21 12° NW 11:12:18 12° NW 11:14:10 10° NNW visible
28 Jan 7.5 08:50:29 12° NE 08:50:29 12° NE 08:50:46 10° NE visible
28 Jan 6.1 10:30:26 18° NNW 10:30:26 18° NNW 10:32:39 10° N visible
